Tracking 29040 objects as of 15-Jun-2024
HD Live streaming from Space Station
objects crossing your sky now

CZ-2C DEB

Track CZ-2C DEB now!
10-day predictions


NORAD ID: 40263
Int'l Code: 2014-059C
Perigee: 622.5 km
Apogee: 748.3 km
Inclination: 98.2 °
Period: 98.3 minutes
Semi major axis: 7056 km
RCS: Unknown
Launch date: September 28, 2014
Source: People's Republic of China (PRC)
Launch site: Jiuquan Satellite Launch Center, China (JSC)

Note: This is SATELLITE DEBRIS
Your satellite tracking list
Your tracking list is empty




NASA's NSSDC Master Catalog

Two Line Element Set (TLE):
1 40263U 14059C   24166.75061890  .00010108  00000-0  18012-2 0  9993
2 40263  98.2016 255.3979 0089189 116.4527 244.5859 14.64633662514800
Source of the keplerian elements: AFSPC